Gesamt
Hayman Island Resort Heliport Airport (Hayman Island, QLD) HIS Wetter
There is no TAF data available at HIS. Showing TAF data for YBHM (21 mi S).
HTI Terminal Area Forecast (keine Daten für HIS)
| Date | Time (AEST) | Flight Rules | Wind Dir. | Speed | Type | Height AGL (ft) | Visibility | Remarks | ||||||
|---|---|---|---|---|---|---|---|---|---|---|---|---|---|---|
| 09-Mai | 09:00 | VFR | 140° | 20 kt | Few | 3.000 | >= 6 miles | |||||||
| 09-Mai | 08:00 | VFR | 140° | 20 kt | Few | 3.000 | >= 6 miles | |||||||
| 09-Mai | 07:00 | VFR | 140° | 20 kt | Few | 3.000 | >= 6 miles | |||||||
| 09-Mai | 06:00 | VFR | 140° | 20 kt | Few | 3.000 | >= 6 miles | |||||||
| 09-Mai | 05:00 | VFR | 140° | 20 kt | Few | 3.000 | >= 6 miles | |||||||
| 09-Mai | 04:00 | VFR | 140° | 20 kt | Few | 3.000 | >= 6 miles | |||||||
| 09-Mai | 03:00 | VFR | 140° | 20 kt | Few | 3.000 | >= 6 miles | |||||||
| 09-Mai | 02:00 | VFR | 140° | 20 kt | Few | 3.000 | >= 6 miles | |||||||
| 09-Mai | 01:00 | VFR | 140° | 20 kt | Few | 3.000 | >= 6 miles | |||||||
There is no METAR data available at HIS. Showing METAR data for YBHM (21 mi S).
Aktueller METAR-Verlauf HTI (keine Daten für HIS)
| Date | Time (AEST) | Flight Rules | Wind Dir. | Speed | Type | Height AGL (ft) | Visibility | Temp (°C) | Temp (°F) | Dew Point (°C) | Dew Point (°F) | Rel. Humid. | Pressure | Density Altitude | Remarks |
|---|---|---|---|---|---|---|---|---|---|---|---|---|---|---|---|
| 09-Mai | 01:30 | VFR | 150° | 25 kt | 10000 meters | 22° | 71° | 12° | 53° | 53% | 1017 mb | 743 ft | |||
| 09-Mai | 01:00 | VFR | 150° | 24 kt | 10000 meters | 22° | 71° | 11° | 51° | 50% | 1017 mb | 743 ft | |||
| 09-Mai | 00:30 | VFR | 150° | 23 kt | 10000 meters | 22° | 71° | 11° | 51° | 50% | 1017 mb | 743 ft | |||
| 09-Mai | 00:00 | VFR | 150° | 21 kt | 10000 meters | 22° | 71° | 13° | 55° | 57% | 1017 mb | 743 ft | |||
| 08-Mai | 23:30 | VFR | 140° | 22 kt | 10000 meters | 23° | 73° | 13° | 55° | 53% | 1017 mb | 863 ft | |||
| 08-Mai | 23:00 | VFR | 130° | 20 kt | 10000 meters | 23° | 73° | 14° | 57° | 57% | 1018 mb | 833 ft | |||
| 08-Mai | 22:30 | VFR | 130° | 17 kt | 10000 meters | 23° | 73° | 13° | 55° | 53% | 1018 mb | 833 ft | |||
| 08-Mai | 22:00 | VFR | 130° | 17 kt | 10000 meters | 23° | 73° | 13° | 55° | 53% | 1018 mb | 833 ft | |||
| 08-Mai | 21:30 | VFR | 130° | 17 kt | 10000 meters | 23° | 73° | 13° | 55° | 53% | 1018 mb | 833 ft | |||
| 08-Mai | 21:00 | VFR | 130° | 17 kt | 10000 meters | 23° | 73° | 15° | 59° | 61% | 1018 mb | 833 ft | |||
| 08-Mai | 20:30 | VFR | 130° | 18 kt | 10000 meters | 23° | 73° | 15° | 59° | 61% | 1018 mb | 833 ft | |||
| 08-Mai | 20:00 | VFR | 130° | 19 kt | 10000 meters | 23° | 73° | 16° | 60° | 65% | 1018 mb | 833 ft | |||
| 08-Mai | 19:30 | VFR | 130° | 18 kt | 10000 meters | 22° | 71° | 15° | 59° | 65% | 1017 mb | 743 ft | |||
| 08-Mai | 19:00 | VFR | 120° | 19 kt | 10000 meters | 22° | 71° | 15° | 59° | 65% | 1017 mb | 743 ft | |||
| 08-Mai | 18:30 | VFR | 120° | 17 kt | 10000 meters | 22° | 71° | 15° | 59° | 65% | 1017 mb | 743 ft | |||
| 08-Mai | 18:00 | VFR | 120° | 17 kt | 10000 meters | 22° | 71° | 15° | 59° | 65% | 1016 mb | 773 ft | |||
| 08-Mai | 17:30 | VFR | 120° | 16 kt | 10000 meters | 22° | 71° | 15° | 59° | 65% | 1016 mb | 773 ft | |||
| 08-Mai | 17:00 | VFR | 120° | 16 kt | 10000 meters | 22° | 71° | 15° | 59° | 65% | 1016 mb | 773 ft | |||
| 08-Mai | 16:30 | VFR | 120° | 16 kt | 10000 meters | 22° | 71° | 14° | 57° | 60% | 1015 mb | 802 ft | |||
| 08-Mai | 16:00 | VFR | 120° | 18 kt | 10000 meters | 22° | 71° | 13° | 55° | 57% | 1015 mb | 802 ft | |||
| 08-Mai | 15:30 | VFR | 130° | 18 kt | 10000 meters | 23° | 73° | 13° | 55° | 53% | 1015 mb | 922 ft | |||
| 08-Mai | 15:00 | VFR | 130° | 17 kt | 10000 meters | 23° | 73° | 14° | 57° | 57% | 1015 mb | 922 ft | |||
| 08-Mai | 14:30 | VFR | 140° | 18 kt | 10000 meters | 23° | 73° | 14° | 57° | 57% | 1015 mb | 922 ft | |||
| 08-Mai | 14:00 | VFR | 140° | 19 kt | 10000 meters | 23° | 73° | 14° | 57° | 57% | 1016 mb | 893 ft |
Anmelden
| Ihr Browser wird nicht unterstützt. aktualisieren Sie Ihren Browser |
